EN

Hourly Weather Lugovoe

Today, 16 January, Saturday

Time Temperature Precipitation Wind Pressure Humidity
00:00 +1°C° 0 mm 3 mps 700 mmHg 47%
01:00 +1°C° 0 mm 3 mps 699 mmHg 47%
02:00 +1°C° 0 mm 3 mps 699 mmHg 47%
03:00 +1°C° 0 mm 3 mps 699 mmHg 44%
04:00 +2°C° 0 mm 3 mps 699 mmHg 42%
05:00 +2°C° 0 mm 3 mps 699 mmHg 38%
06:00 +3°C° 0 mm 3 mps 699 mmHg 37%
07:00 +3°C° 0 mm 3 mps 699 mmHg 37%
08:00 +3°C° 0 mm 3 mps 699 mmHg 36%
09:00 +6°C° 0 mm 2 mps 699 mmHg 45%
10:00 +7°C° 0 mm 2 mps 699 mmHg 54%
11:00 +8°C° 0 mm 2 mps 699 mmHg 63%
12:00 +9°C° 0 mm 2 mps 699 mmHg 65%
13:00 +9°C° 0 mm 2 mps 698 mmHg 67%
14:00 +9°C° 0 mm 2 mps 698 mmHg 69%
15:00 +9°C° 0 mm 2 mps 698 mmHg 60%
16:00 +9°C° 0 mm 2 mps 698 mmHg 51%
17:00 +8°C° 0 mm 2 mps 698 mmHg 41%
18:00 +8°C° 0 mm 2 mps 699 mmHg 39%
19:00 +8°C° 0 mm 3 mps 699 mmHg 37%
20:00 +8°C° 0 mm 3 mps 699 mmHg 35%
21:00 +7°C° 0 mm 3 mps 699 mmHg 34%
22:00 +7°C° 0 mm 2 mps 699 mmHg 34%
23:00 +7°C° 0 mm 2 mps 699 mmHg 34%

Tomorrow, 17 January, Sunday

Time Temperature Precipitation Wind Pressure Humidity
00:00 +7°C° 0 mm 2 mps 699 mmHg 35%
01:00 +7°C° 0 mm 2 mps 700 mmHg 36%
02:00 +7°C° 0 mm 2 mps 700 mmHg 38%
03:00 +6°C° 0 mm 2 mps 700 mmHg 39%
04:00 +6°C° 0 mm 1 mps 700 mmHg 41%
05:00 +6°C° 0 mm 1 mps 701 mmHg 42%
06:00 +4°C° 0 mm 1 mps 701 mmHg 45%
07:00 +3°C° 0 mm 1 mps 701 mmHg 47%
08:00 +2°C° 0 mm 1 mps 701 mmHg 50%
09:00 +4°C° 0 mm 1 mps 701 mmHg 57%
10:00 +5°C° 0 mm 1 mps 701 mmHg 65%
11:00 +5°C° 0 mm 2 mps 701 mmHg 72%
12:00 +5°C° 0 mm 2 mps 700 mmHg 75%
13:00 +5°C° 0 mm 2 mps 699 mmHg 79%
14:00 +5°C° 0 mm 2 mps 699 mmHg 82%
15:00 +4°C° 0 mm 2 mps 698 mmHg 76%
16:00 +3°C° 0 mm 2 mps 698 mmHg 70%
17:00 +2°C° 0 mm 2 mps 697 mmHg 63%
18:00 +2°C° 0 mm 2 mps 697 mmHg 61%
19:00 +1°C° 0 mm 2 mps 697 mmHg 59%
20:00 0°C° 0 mm 3 mps 696 mmHg 57%
21:00 +1°C° 0 mm 2 mps 696 mmHg 56%
22:00 +1°C° 0 mm 2 mps 695 mmHg 55%
23:00 +1°C° 0 mm 1 mps 695 mmHg 54%

Day after tomorrow, 18 January, Monday

Time Temperature Precipitation Wind Pressure Humidity
00:00 +1°C° 0 mm 1 mps 695 mmHg 53%
01:00 +1°C° 0 mm 1 mps 695 mmHg 52%
02:00 +1°C° 0 mm 1 mps 695 mmHg 52%
03:00 +1°C° 0 mm 1 mps 695 mmHg 52%
04:00 0°C° 0 mm 1 mps 694 mmHg 53%
05:00 0°C° 0 mm 1 mps 694 mmHg 53%
06:00 +1°C° 0 mm 1 mps 694 mmHg 52%
07:00 -1°C° 0 mm 2 mps 695 mmHg 51%
08:00 +1°C° 0 mm 2 mps 695 mmHg 50%
09:00 +2°C° 0 mm 2 mps 695 mmHg 55%
10:00 +3°C° 0 mm 2 mps 695 mmHg 60%
11:00 +4°C° 0 mm 2 mps 696 mmHg 65%
12:00 +5°C° 0 mm 2 mps 695 mmHg 67%
13:00 +5°C° 0 mm 2 mps 695 mmHg 69%
14:00 +5°C° 0 mm 2 mps 695 mmHg 71%
15:00 +5°C° 0 mm 2 mps 695 mmHg 65%
16:00 +4°C° 0 mm 2 mps 695 mmHg 59%
17:00 +4°C° 0 mm 2 mps 695 mmHg 53%
18:00 +4°C° 0 mm 2 mps 695 mmHg 51%
19:00 +4°C° 0 mm 2 mps 695 mmHg 50%
20:00 +4°C° 0 mm 2 mps 696 mmHg 48%
21:00 +5°C° 0 mm 2 mps 696 mmHg 48%
22:00 +5°C° 0 mm 2 mps 696 mmHg 48%
23:00 +6°C° 0 mm 2 mps 697 mmHg 47%

19 January, Tuesday

Time Temperature Precipitation Wind Pressure Humidity
00:00 +6°C° 0 mm 2 mps 697 mmHg 49%
01:00 +6°C° 0 mm 2 mps 697 mmHg 50%
02:00 +6°C° 0 mm 2 mps 697 mmHg 51%
03:00 +6°C° 0 mm 2 mps 697 mmHg 53%
04:00 +5°C° 0 mm 2 mps 697 mmHg 55%
05:00 +6°C° 0 mm 1 mps 697 mmHg 57%
06:00 +5°C° 0 mm 2 mps 697 mmHg 58%
07:00 +5°C° 0 mm 2 mps 697 mmHg 58%
08:00 +4°C° 0 mm 2 mps 698 mmHg 59%
09:00 +5°C° 0 mm 2 mps 698 mmHg 63%
10:00 +4°C° 0 mm 3 mps 698 mmHg 68%
11:00 +4°C° 0 mm 3 mps 698 mmHg 73%
12:00 +5°C° 0 mm 3 mps 698 mmHg 76%
13:00 +5°C° 0 mm 3 mps 698 mmHg 79%
14:00 +5°C° 0 mm 3 mps 698 mmHg 82%
15:00 +6°C° 0 mm 2 mps 698 mmHg 76%
16:00 +6°C° 0 mm 2 mps 698 mmHg 71%
17:00 +5°C° 0 mm 2 mps 699 mmHg 65%
18:00 +5°C° 0 mm 2 mps 699 mmHg 63%
19:00 +5°C° 0 mm 2 mps 699 mmHg 61%
20:00 +5°C° 0 mm 2 mps 700 mmHg 58%
21:00 +5°C° 0 mm 2 mps 700 mmHg 59%
22:00 +5°C° 0 mm 2 mps 700 mmHg 60%
23:00 +5°C° 0 mm 2 mps 701 mmHg 61%

20 January, Wednesday

Time Temperature Precipitation Wind Pressure Humidity
00:00 +4°C° 0 mm 2 mps 701 mmHg 63%
01:00 +4°C° 0 mm 2 mps 701 mmHg 65%
02:00 +4°C° 0 mm 2 mps 701 mmHg 67%
03:00 +3°C° 0 mm 3 mps 701 mmHg 65%
04:00 +3°C° 0 mm 3 mps 702 mmHg 62%
05:00 +1°C° 0 mm 4 mps 702 mmHg 60%
06:00 +2°C° 0 mm 3 mps 702 mmHg 60%
07:00 +2°C° 0 mm 3 mps 702 mmHg 60%
08:00 +2°C° 0 mm 3 mps 703 mmHg 61%
09:00 +4°C° 0 mm 2 mps 702 mmHg 65%
10:00 +5°C° 0 mm 2 mps 702 mmHg 70%
11:00 +5°C° 0 mm 2 mps 702 mmHg 74%
12:00 +6°C° 0 mm 2 mps 701 mmHg 75%
13:00 +6°C° 0 mm 2 mps 700 mmHg 75%
14:00 +6°C° 0 mm 2 mps 700 mmHg 76%
15:00 +5°C° 0 mm 2 mps 699 mmHg 73%
16:00 +4°C° 0 mm 3 mps 699 mmHg 70%
17:00 +3°C° 0 mm 3 mps 698 mmHg 67%
18:00 +3°C° 0 mm 3 mps 698 mmHg 63%
19:00 +3°C° 0 mm 3 mps 698 mmHg 58%
20:00 +3°C° 0 mm 3 mps 697 mmHg 54%
21:00 +3°C° 0 mm 3 mps 697 mmHg 49%
22:00 +4°C° 0 mm 3 mps 697 mmHg 45%
23:00 +4°C° 0 mm 3 mps 697 mmHg 40%

21 January, Thursday

Time Temperature Precipitation Wind Pressure Humidity
00:00 +4°C° 0 mm 4 mps 697 mmHg 39%
01:00 +4°C° 0 mm 4 mps 697 mmHg 38%
02:00 +4°C° 0 mm 4 mps 696 mmHg 37%
03:00 +4°C° 0 mm 4 mps 696 mmHg 37%
04:00 +4°C° 0 mm 4 mps 696 mmHg 37%
05:00 +4°C° 0 mm 4 mps 696 mmHg 37%
06:00 +3°C° 0 mm 3 mps 696 mmHg 40%
07:00 +3°C° 0 mm 3 mps 697 mmHg 42%
08:00 +3°C° 0 mm 3 mps 697 mmHg 44%
09:00 +3°C° 0 mm 3 mps 697 mmHg 55%
10:00 +3°C° 0 mm 3 mps 697 mmHg 66%
11:00 +3°C° 0 mm 3 mps 698 mmHg 77%
12:00 +3°C° 0 mm 2 mps 698 mmHg 83%
13:00 +2°C° 0 mm 2 mps 698 mmHg 89%
14:00 +2°C° 0 mm 2 mps 698 mmHg 95%
15:00 +2°C° 0.2 mm 1 mps 698 mmHg 96%
16:00 +2°C° 0.2 mm 1 mps 698 mmHg 97%
17:00 +1°C° 0.2 mm 1 mps 699 mmHg 97%
18:00 +1°C° 0.6 mm 1 mps 699 mmHg 97%
19:00 0°C° 0.6 mm 1 mps 699 mmHg 97%
20:00 0°C° 0.6 mm 1 mps 699 mmHg 97%
21:00 0°C° 0.2 mm 1 mps 699 mmHg 97%
22:00 -1°C° 0.2 mm 1 mps 698 mmHg 96%
23:00 -1°C° 0.2 mm 1 mps 698 mmHg 96%
Show more